Weather History for New York, NY

Change the Weather History Date:

Monday, December 19, 2011

  Actual Average Record
Temperature  
Mean Temperature 36 °F 37 °F  
Max Temperature 47 °F 43 °F 57 °F (1957)
Min Temperature 25 °F 31 °F 14 °F (1980)
Degree Days  
Heating Degree Days 29 28  
Month to date heating degree days 403 475  
Since 1 July heating degree days 1025 1250  
Cooling Degree Days 0 0  
Month to date cooling degree days 0 0  
Year to date cooling degree days 1375 1214  
Moisture  
Dew Point 22 °F    
Average Humidity 53    
Maximum Humidity 64    
Minimum Humidity 42    
Precipitation  
Precipitation 0.00 in 0.11 in 1.31 in (1948)
Month to date precipitation 1.84 2.27  
Year to date precipitation 63.26 43.44  
Snow  
Snow 0.00 in 0.20 in 15.90 in (1948)
Month to date snowfall 0.0 2.5  
Since 1 July snowfall 1.7 2.8  
Snow Depth 0.00 in    
Sea Level Pressure  
Sea Level Pressure 30.13 in    
Wind  
Wind Speed 10 mph (SW)    
Max Wind Speed 24 mph    
Max Gust Speed 33 mph    
Visibility 10 miles    
Events      
T = Trace of Precipitation, MM = Missing Value Source: NWS Daily Summary

Daily Weather History Graph

Daily Weather History Graph

Search for Another Location

Airport:

Trip Planner

Search our weather history database for the weather conditions in past years. The results will help you decide how hot, cold, wet, or windy it might be!

Date:

Astronomy

Dec. 19, 2011 Rise Set
Actual Time 7:15 AM EST 4:30 PM EST
Civil Twilight 6:43 AM EST 5:01 PM EST
Nautical Twilight 6:09 AM EST 5:35 PM EST
Astronomical Twilight 5:36 AM EST 6:09 PM EST
Moon 1:20 AM EST (12/19) 12:28 PM EST (12/19)
Length of Visible Light 10h 17m
Length of Day
9h 15m
Waning Crescent, 31% of the Moon is Illuminated
Dec 19
Waning Crescent
Dec 24
New
Jan 1
First Quarter
Jan 9
Full
Jan 16
Last Quarter

Hourly Weather History & Observations

Time (EST) Temp. Windchill Dew Point Humidity Pressure Visibility Wind Dir Wind Speed Gust Speed Precip Events Conditions
12:51 AM 27.0 °F 21.6 °F 9.0 °F 47% 30.29 in 10.0 mi ESE 4.6 mph - N/A   Partly Cloudy
1:51 AM 26.1 °F 20.5 °F 9.0 °F 49% 30.30 in 10.0 mi SE 4.6 mph - N/A   Partly Cloudy
2:51 AM 26.1 °F 19.4 °F 10.0 °F 51% 30.30 in 10.0 mi ESE 5.8 mph - N/A   Partly Cloudy
3:51 AM 27.0 °F 23.0 °F 10.9 °F 51% 30.27 in 10.0 mi South 3.5 mph - N/A   Partly Cloudy
4:51 AM 28.9 °F 25.2 °F 12.9 °F 51% 30.26 in 10.0 mi SSW 3.5 mph - N/A   Mostly Cloudy
5:51 AM 30.0 °F 24.1 °F 15.1 °F 54% 30.26 in 10.0 mi SSW 5.8 mph - N/A   Partly Cloudy
6:51 AM 32.0 °F 25.6 °F 21.0 °F 64% 30.25 in 10.0 mi SW 6.9 mph - N/A   Partly Cloudy
7:51 AM 32.0 °F 23.0 °F 21.0 °F 64% 30.24 in 10.0 mi SW 11.5 mph - N/A   Scattered Clouds
8:51 AM 34.0 °F 26.0 °F 23.0 °F 64% 30.22 in 10.0 mi SW 10.4 mph 17.3 mph N/A   Scattered Clouds
9:51 AM 36.0 °F 28.5 °F 25.0 °F 64% 30.21 in 10.0 mi SW 10.4 mph 18.4 mph N/A   Mostly Cloudy
10:51 AM 39.0 °F 30.3 °F 24.1 °F 55% 30.19 in 10.0 mi SW 16.1 mph 26.5 mph N/A   Mostly Cloudy
11:51 AM 42.1 °F 34.5 °F 24.1 °F 49% 30.13 in 10.0 mi WSW 15.0 mph 24.2 mph N/A   Partly Cloudy
12:51 PM 44.6 °F 38.1 °F 24.8 °F 46% 30.08 in 10.0 mi SSW 13.8 mph 24.2 mph N/A   Partly Cloudy
1:51 PM 45.0 °F 38.5 °F 24.1 °F 44% 30.05 in 10.0 mi SW 13.8 mph 21.9 mph N/A   Scattered Clouds
2:51 PM 46.9 °F - 25.0 °F 42% 30.01 in 10.0 mi SW 10.4 mph 20.7 mph N/A   Mostly Cloudy
3:51 PM 46.9 °F - 25.0 °F 42% 30.01 in 10.0 mi SW 6.9 mph - N/A   Mostly Cloudy
4:51 PM 46.9 °F - 26.1 °F 44% 30.01 in 10.0 mi SW 13.8 mph 17.3 mph N/A   Overcast
5:51 PM 46.9 °F - 27.0 °F 46% 30.00 in 10.0 mi SW 11.5 mph 20.7 mph N/A   Overcast
6:51 PM 46.9 °F - 27.0 °F 46% 30.00 in 10.0 mi SW 12.7 mph 19.6 mph N/A   Overcast
7:51 PM 46.9 °F - 27.0 °F 46% 29.99 in 10.0 mi WSW 18.4 mph 28.8 mph N/A   Overcast
8:51 PM 46.0 °F 41.4 °F 27.0 °F 47% 29.99 in 10.0 mi SW 9.2 mph 20.7 mph N/A   Mostly Cloudy
9:51 PM 46.0 °F 39.6 °F 27.0 °F 47% 29.99 in 10.0 mi WSW 15.0 mph 23.0 mph N/A   Overcast
10:51 PM 46.4 °F 41.9 °F 28.4 °F 50% 29.98 in 10.0 mi SW 9.2 mph - N/A   Overcast
11:51 PM 46.0 °F 41.0 °F 28.0 °F 50% 29.98 in 10.0 mi WSW 10.4 mph - N/A   Overcast